Date,TemperatureHighF,TemperatureAvgF,TemperatureLowF,DewpointHighF,DewpointAvgF,DewpointLowF,HumidityHigh,HumidityAvg,HumidityLow,PressureMaxIn,PressureMinIn,WindSpeedMaxMPH,WindSpeedAvgMPH,GustSpeedMaxMPH,PrecipitationSumIn
2013-2-1,69.0,62.5,53.0,-99.9,-99.9,-99.9,0,0,100,30.28,30.17,26,17,32,0.00
2013-2-2,70.0,65.3,57.0,-99.9,-99.9,-99.9,0,0,100,30.27,30.13,15,8,19,0.00
2013-2-3,70.0,64.9,58.0,-99.9,-99.9,-99.9,0,0,100,30.18,30.09,20,-18,24,0.00
2013-2-4,70.0,63.7,52.0,-99.9,-99.9,-99.9,0,0,100,30.15,30.04,13,-63,15,0.00
2013-2-5,73.0,68.4,60.0,-99.9,-99.9,-99.9,0,0,100,30.10,30.02,14,-55,16,0.00
2013-2-6,76.0,71.3,65.0,-99.9,-99.9,-99.9,0,0,100,30.12,30.03,18,-27,20,0.00
2013-2-7,75.0,70.8,72.0,-99.9,-99.9,-99.9,0,0,100,30.09,29.96,106,17,130,0.00
2013-2-8,81.0,74.1,70.0,-99.9,-99.9,-99.9,0,0,100,30.03,29.92,20,9,22,0.00
2013-2-9,74.0,72.2,67.0,-99.9,-99.9,-99.9,0,0,100,30.16,30.00,21,13,24,0.00
2013-2-10,73.0,71.7,69.0,-99.9,-99.9,-99.9,0,0,100,30.25,30.14,24,18,27,0.00
2013-2-11,74.0,73.1,72.0,-99.9,-99.9,-99.9,0,0,100,30.21,30.10,21,17,25,0.00
2013-2-12,76.0,74.2,70.0,-99.9,-99.9,-99.9,0,0,100,30.11,29.96,24,16,28,0.00
2013-2-13,78.0,75.0,72.0,-99.9,-99.9,-99.9,0,0,100,30.00,29.88,28,16,32,0.00
2013-2-14,74.0,70.0,64.0,-99.9,-99.9,-99.9,0,0,100,29.99,29.85,27,11,33,0.00
2013-2-15,71.0,67.5,65.0,-99.9,-99.9,-99.9,0,0,100,30.01,29.92,27,10,31,0.00
2013-2-16,70.0,64.7,56.0,-99.9,-99.9,-99.9,0,0,100,30.06,29.86,22,12,30,0.00
2013-2-17,55.0,50.8,45.0,-99.9,-99.9,-99.9,0,0,100,30.28,30.06,25,17,34,0.00
2013-2-18,68.0,59.3,48.0,-99.9,-99.9,-99.9,0,0,100,30.31,30.19,23,16,27,0.00
2013-2-19,73.0,71.4,67.0,-99.9,-99.9,-99.9,0,0,100,30.19,30.08,22,16,28,0.00
2013-2-20,74.0,70.1,65.0,-99.9,-99.9,-99.9,0,0,100,30.10,30.00,15,8,17,0.00
2013-2-21,75.0,74.2,73.0,-99.9,-99.9,-99.9,0,0,100,30.08,29.98,16,11,19,0.00
2013-2-22,76.0,74.9,74.0,-99.9,-99.9,-99.9,0,0,100,30.09,30.00,24,18,27,0.00
2013-2-23,76.0,75.0,71.0,-99.9,-99.9,-99.9,0,0,100,30.04,29.90,25,19,28,0.00
2013-2-24,80.0,75.1,72.0,-99.9,-99.9,-99.9,0,0,100,29.98,29.89,17,10,19,0.00
2013-2-25,77.0,75.4,73.0,-99.9,-99.9,-99.9,0,0,100,29.90,29.80,21,12,24,0.00
2013-2-26,81.0,77.0,76.0,-99.9,-99.9,-99.9,0,0,100,29.87,29.78,28,18,32,0.00
2013-2-27,77.0,69.6,63.0,-99.9,-99.9,-99.9,0,0,100,29.95,29.84,14,7,19,0.00
2013-2-28,69.0,63.9,59.0,-99.9,-99.9,-99.9,0,0,100,29.98,29.89,14,8,21,0.00